Find Starlink 32481

NORAD ID: 62320 Int'l Des: 2024-239 Owner: SPXS Country: US Constellation: starlink operational
LEOCIRCULAR

Current View

Loading 3D Globe...

About Starlink 32481

Starlink 32481 (NORAD 62320) is a starlink constellation satellite (v2 mini) launched Dec 13, 2024 by SPXS of US. It operates in LEO, CIRCULAR orbit with a mass of 730.00 kg.

Upcoming Passes

Passes for default location (London). Set your location on the main map for personalized predictions.

Altitude History

Loading altitude history...

Two-Line Element Set

1 62320U 24239V 26235.08519208 .00016103 00000-0 55458-3 0 9995
2 62320 53.1579 127.9726 0001071 94.5852 265.5271 15.30203391 95044
Epoch: Aug 23, 2026 • Age: 29 hours

Current Status

Altitude 480.3 km
Apogee / Perigee N/A
Velocity 7.63 km/s
Sub-Earth Point 50.02°N, 113.94°E
Launch Date Dec 13, 2024
Age 1.6 years
Type internet

Technical Details

Classification Payload
Mass 730.00 kg
Dry Mass 700.00 kg
Total Mass 730.00 kg
Length 0.30 m
Diameter 4.10 m
Span 29.00 m
Shape Box + pan
Manufacturer SPXS
Bus Type Starlink V2M
Phase Status In Orbit
Owner/State SPXS/US

Most Searched